Theta_e
291 291 291 290 290 290 290 290 289 290 291 292 291 291 291 291 292 292 292 292 292 292 292 291 292 293 294 295 296 300 306 315 318 321 324 324 323 323
291 291 290 290 290 290 289 289 289 289 290 290 290 289 289 290 291 291 291 291 292 292 292 291 291 292 293 294 294 296 301 306 314 318 321 323 323 322
289 289 289 289 289 289 289 288 288 288 288 289 289 289 289 289 289 290 290 290 291 291 292 292 291 291 292 293 294 295 296 302 309 315 320 322 323 323
288 288 288 288 288 288 288 288 288 288 288 288 288 288 288 288 288 288 289 289 290 290 291 291 292 291 291 292 292 293 295 297 305 311 317 319 321 323
287 286 286 286 286 286 287 287 287 287 287 287 287 287 287 287 287 288 288 288 289 290 290 290 291 291 291 291 292 292 293 295 299 308 313 319 321 321
286 285 285 285 285 285 285 286 286 286 286 286 286 287 287 287 287 287 288 288 288 288 289 289 290 290 291 291 291 292 292 293 295 303 311 317 319 320
285 285 285 285 285 285 284 285 285 285 285 285 285 286 286 286 286 287 287 287 287 288 289 289 289 290 290 290 290 291 292 292 293 295 306 314 318 318
285 285 285 284 284 284 284 284 285 285 285 285 285 285 286 286 286 286 286 287 287 288 289 289 288 289 289 289 290 290 291 292 293 293 296 309 314 317
284 284 283 283 283 283 283 283 283 283 283 284 284 284 284 285 285 285 286 286 286 286 286 286 287 287 288 289 289 289 290 291 292 292 294 300 313 315
283 283 283 283 283 283 282 282 282 282 283 283 283 283 283 283 283 284 284 284 284 284 285 285 286 286 287 288 288 288 289 290 291 292 292 295 311 314
283 283 283 283 283 283 283 283 283 283 283 284 284 284 284 284 284 285 285 285 285 285 285 286 286 286 286 287 288 291 290 289 290 291 292 293 305 312
282 283 283 283 283 283 283 283 283 283 283 283 283 284 284 284 284 284 284 284 284 285 286 287 287 287 287 289 291 292 290 289 289 290 291 292 297 311
282 282 282 283 283 283 283 283 283 283 283 284 284 284 284 284 285 284 285 284 285 284 284 285 286 286 286 286 287 288 288 288 289 290 291 293 294 308
282 281 282 282 283 283 283 283 284 284 285 284 284 284 284 284 284 284 284 285 285 285 285 284 284 285 286 286 286 286 287 287 287 288 289 290 294 300
281 281 282 282 282 283 282 283 283 283 283 283 284 283 283 284 284 284 284 284 284 284 284 285 284 284 284 284 284 285 285 286 287 287 288 289 292 296
281 281 282 282 282 283 283 283 282 283 283 283 283 282 282 282 283 283 283 283 284 284 284 284 284 284 284 284 284 284 284 284 285 286 287 288 290 296
282 282 281 281 282 282 281 281 281 281 281 281 282 282 282 282 282 283 283 283 283 284 284 284 284 284 284 284 284 284 285 285 285 286 287 287 288 294
281 281 281 281 281 280 280 280 280 281 281 281 281 281 281 281 281 282 282 283 283 283 283 283 284 284 284 284 283 284 284 284 284 285 286 286 288 289
280 280 280 280 279 279 279 280 280 280 280 280 280 280 280 281 281 281 282 282 283 283 283 283 284 284 283 283 284 284 284 284 285 285 286 286 287 288
279 279 279 279 279 279 279 279 279 279 280 280 280 280 280 280 281 281 281 281 281 282 282 282 283 283 283 284 284 284 284 284 285 285 285 286 286 287
278 278 279 278 278 278 278 278 279 279 279 279 280 280 280 280 280 281 281 282 282 282 282 283 283 283 283 283 284 284 283 283 284 284 284 285 285 287
278 278 278 278 278 278 278 278 278 278 278 279 279 279 279 279 280 280 280 281 281 281 281 281 282 283 283 283 283 283 283 283 283 284 284 284 284 285
277 277 277 277 277 277 277 277 278 278 278 278 278 279 279 279 279 280 280 281 281 281 281 281 282 282 283 283 283 283 283 283 283 283 284 285 285 285
Wind_Speed
9 10 10 11 12 12 13 14 14 12 18 11 17 21 25 24 22 22 23 23 24 25 23 21 20 20 18 17 15 11 11 10 11 11 11 21 19 15
12 12 14 14 15 16 16 16 16 15 16 21 23 27 27 29 25 23 22 23 23 24 25 24 22 20 19 18 16 14 11 11 12 12 12 24 22 19
14 15 15 16 17 16 17 18 19 19 22 28 27 28 28 29 30 27 24 23 23 23 25 25 25 23 19 19 18 16 14 13 12 14 13 18 31 24
16 17 17 17 18 18 18 19 19 20 21 25 30 30 30 29 30 31 29 24 23 24 24 26 26 25 23 19 18 18 15 14 12 14 14 12 31 31
19 20 20 20 21 19 19 19 19 20 21 24 30 30 31 30 30 29 30 28 24 22 23 25 26 27 24 21 18 19 18 16 13 15 14 14 32 33
19 21 21 21 21 20 19 19 18 19 20 21 23 26 28 29 27 28 26 26 29 26 26 24 25 26 27 23 20 18 20 19 16 15 14 15 29 31
19 19 18 19 21 22 21 20 18 20 22 24 25 26 28 29 28 26 27 29 30 27 20 21 22 24 25 26 21 19 19 20 18 15 15 16 18 38
14 13 14 16 16 14 14 16 17 20 23 25 27 27 28 27 27 26 27 27 26 21 15 24 27 23 24 26 27 20 20 20 21 17 16 16 17 32
13 14 14 12 15 16 16 16 17 17 19 22 27 30 31 30 32 33 29 27 27 27 25 30 28 29 23 25 27 24 22 21 22 21 17 16 19 22
14 15 15 15 14 15 17 18 18 18 18 17 18 21 20 20 21 24 27 31 34 34 28 32 30 30 28 23 26 26 24 22 22 22 19 15 16 19
14 14 15 16 16 16 18 20 21 21 19 19 20 21 21 21 22 25 28 28 32 32 25 22 27 28 30 23 19 15 22 20 22 22 21 16 18 20
14 14 14 16 16 17 19 21 24 24 23 23 23 22 22 22 19 20 21 26 28 31 22 21 21 12 13 8 9 15 19 17 20 21 21 18 17 19
16 18 18 17 17 18 19 22 23 20 21 22 23 24 24 23 23 23 23 22 23 27 25 26 25 23 24 29 25 22 22 23 17 18 18 18 17 19
20 20 18 16 18 20 22 23 23 24 27 27 26 26 26 25 24 22 23 23 23 24 22 22 25 26 24 27 30 28 29 28 25 23 20 18 18 23
16 18 20 20 21 22 23 21 21 23 25 27 27 27 25 24 23 24 24 22 25 25 24 23 24 26 27 31 34 34 34 32 29 23 23 19 18 19
18 19 20 22 24 24 22 21 22 20 21 22 25 28 29 29 28 27 27 26 25 24 24 24 24 24 26 28 29 31 30 30 28 23 23 20 17 18
21 24 25 26 22 21 20 20 22 23 24 24 24 25 25 27 27 25 24 25 25 22 24 23 22 21 23 26 26 24 25 26 27 21 23 24 20 19
22 25 26 22 24 26 25 24 23 22 22 23 23 23 24 25 24 25 25 25 26 26 26 24 22 21 23 25 23 25 27 27 26 23 23 26 22 18
24 25 26 26 24 22 22 23 24 23 23 22 23 24 24 24 23 23 24 24 25 25 26 25 25 25 25 27 23 20 22 21 20 20 20 22 24 19
23 24 26 23 21 23 23 23 23 24 24 24 24 24 24 24 24 24 24 25 26 27 28 27 27 25 25 28 25 22 21 20 19 19 19 21 21 18
23 23 24 23 23 24 24 24 24 24 23 23 24 25 26 26 26 26 26 23 23 25 26 27 28 26 26 25 27 27 25 25 26 26 23 20 19 18
24 24 26 26 25 25 25 26 26 26 27 27 27 26 26 26 28 28 27 26 27 26 27 29 27 25 26 27 29 26 24 23 23 22 21 22 24 18
29 29 28 27 26 26 26 24 24 26 26 27 27 27 27 27 27 28 27 25 26 27 26 27 25 25 28 30 29 27 22 21 21 21 22 20 20 21
Wind_Direction
306 305 303 299 298 296 297 300 302 307 308 292 306 315 316 319 324 325 327 328 329 331 335 340 340 342 343 339 342 318 274 276 274 280 255 247 264 256
299 299 299 299 299 300 299 295 291 286 281 293 291 302 310 314 317 319 320 321 322 322 323 329 333 336 337 336 334 336 308 272 266 274 253 251 260 248
291 293 293 292 292 291 290 292 292 289 283 294 297 302 304 310 313 314 314 316 316 316 314 318 323 328 331 332 331 327 323 307 266 264 263 246 246 251
289 288 288 287 285 287 285 285 283 282 280 285 295 299 302 303 306 310 313 311 309 310 310 309 311 317 324 326 327 325 318 306 281 265 260 253 240 237
284 283 283 281 282 282 280 277 278 281 279 283 290 292 296 301 304 301 306 311 310 302 303 306 304 306 312 320 322 322 321 312 293 267 266 269 227 241
282 282 281 278 278 278 278 276 279 276 278 281 286 295 297 295 301 310 308 300 303 302 299 296 298 298 302 307 313 313 312 311 303 278 264 249 220 237
284 285 285 284 278 279 277 278 275 271 277 283 287 287 294 299 299 298 301 305 302 311 307 297 291 292 296 299 305 309 303 304 303 296 266 248 239 226
287 285 282 283 289 287 282 277 277 282 280 278 278 281 286 292 296 298 299 297 303 282 275 288 295 289 290 295 296 304 302 298 299 298 280 256 241 226
284 281 283 280 278 286 286 285 283 280 274 273 272 271 274 275 279 281 283 289 288 291 297 295 295 292 288 285 290 295 298 294 293 296 290 261 240 240
283 282 282 283 283 285 287 286 285 285 286 283 278 282 283 287 286 284 283 283 284 287 294 293 297 298 292 281 283 295 291 292 287 289 287 272 248 246
283 288 288 286 287 285 287 290 293 294 294 288 287 287 286 284 280 284 285 288 288 292 297 294 295 295 298 297 291 288 284 286 284 284 284 274 241 239
284 286 284 287 289 289 287 286 285 287 287 284 284 283 284 287 285 280 283 278 281 283 297 278 287 309 314 284 253 265 279 280 276 280 279 271 247 240
284 285 284 286 287 285 282 282 284 292 291 286 286 284 281 282 279 283 281 279 279 278 281 273 281 283 281 282 281 281 287 281 278 277 278 274 252 237
284 288 287 286 286 286 286 285 286 284 284 285 286 283 284 286 286 284 279 281 278 276 279 274 271 269 272 277 282 283 283 279 282 283 284 271 257 233
292 293 292 290 290 287 283 283 285 281 281 283 283 284 285 283 281 282 281 279 278 280 274 268 270 269 269 272 277 279 283 283 285 286 278 276 262 244
299 296 296 294 292 289 284 282 284 280 282 283 281 280 280 279 279 281 280 281 278 278 278 271 267 267 270 270 275 278 281 284 280 280 279 272 261 241
296 291 292 294 292 292 290 287 287 282 283 282 280 281 279 279 277 276 273 270 268 269 274 273 278 272 271 270 270 271 275 278 283 284 282 274 262 245
286 284 287 283 286 288 287 286 284 281 280 280 280 279 279 281 281 277 273 269 270 269 266 269 263 265 278 278 279 273 272 277 281 283 283 280 265 248
278 277 280 283 285 286 285 282 281 281 285 282 279 279 279 280 279 276 275 274 271 268 268 268 263 265 263 265 277 283 285 281 283 277 274 274 272 256
275 274 277 279 278 281 283 283 281 281 279 280 281 281 281 281 281 280 278 276 275 275 269 266 260 260 254 260 269 276 276 277 276 276 276 280 277 264
278 272 270 273 275 277 279 279 280 281 283 283 280 280 280 281 280 279 280 274 272 272 271 265 266 267 267 268 264 267 266 261 263 267 270 270 277 271
277 271 269 269 271 274 275 276 278 280 281 281 281 283 282 281 280 280 280 276 275 274 269 268 269 261 258 256 263 269 270 270 271 268 263 261 265 262
270 270 270 268 270 272 274 276 278 280 279 278 279 279 279 280 279 276 276 275 276 273 272 270 268 264 262 261 264 263 265 269 269 269 269 265 265 263